Weather History for Hyannis, MA

Change the Weather History Date:

Friday, November 7, 2014

  Actual Average Record
Temperature  
Mean Temperature 46 °F -  
Max Temperature 55 °F 54 °F 70 °F (1938)
Min Temperature 37 °F 37 °F 23 °F (1967)
Degree Days  
Heating Degree Days 19    
Moisture  
Dew Point 42 °F    
Average Humidity 77    
Maximum Humidity 93    
Minimum Humidity 58    
Precipitation  
Precipitation 0.00 in - - ()
Sea Level Pressure  
Sea Level Pressure 29.51 in    
Wind  
Wind Speed 9 mph (West)    
Max Wind Speed 17 mph    
Max Gust Speed 29 mph    
Visibility 10 miles    
Events Rain    
Averages and records for this station are not official NWS values.
T = Trace of Precipitation, MM = Missing Value Source: NWS Daily Summary

Daily Weather History Graph

Daily Weather History Graph

Search for Another Location

Airport:

Trip Planner

Search our weather history database for the weather conditions in past years. The results will help you decide how hot, cold, wet, or windy it might be!

Date:

Astronomy

Nov. 07, 2014 Rise Set
Actual Time 6:20 AM EST 4:28 PM EST
Civil Twilight 5:51 AM EST 4:57 PM EST
Nautical Twilight 5:17 AM EST 5:31 PM EST
Astronomical Twilight 4:45 AM EST 6:03 PM EST
Moon 5:18 PM EST (11/7) 6:52 AM EST (11/7)
Length of Visible Light 11h 06m
Length of Day
10h 08m
Full, 99% of the Moon is Illuminated
Nov 7
Full
Nov 14
Last Quarter
Nov 22
New
Nov 29
First Quarter
Dec 6
Full

Hourly Weather History & Observations

Time (EST) Temp. Windchill Dew Point Humidity Pressure Visibility Wind Dir Wind Speed Gust Speed Precip Events Conditions
12:34 AM 55.9 °F - 54.0 °F 93% 29.50 in 7.0 mi SW 11.5 mph - N/A   Overcast
12:56 AM 55.9 °F - 54.0 °F 93% 29.49 in 7.0 mi SSW 6.9 mph - 0.00 in Rain Light Rain
1:49 AM 54.0 °F - 52.0 °F 93% 29.48 in 10.0 mi SW 4.6 mph - 0.00 in   Overcast
1:56 AM 54.0 °F - 52.0 °F 93% 29.47 in 10.0 mi South 4.6 mph - 0.00 in   Overcast
2:10 AM 54.0 °F - 52.0 °F 93% 29.48 in 9.0 mi SW 8.1 mph - N/A   Overcast
2:18 AM 54.0 °F - 51.1 °F 90% 29.48 in 9.0 mi WSW 10.4 mph - N/A   Overcast
2:29 AM 53.1 °F - 51.1 °F 93% 29.48 in 9.0 mi WSW 10.4 mph - N/A   Overcast
2:56 AM 53.1 °F - 51.1 °F 93% 29.48 in 9.0 mi WSW 9.2 mph - N/A   Overcast
3:56 AM 52.0 °F - 48.9 °F 89% 29.46 in 10.0 mi West 5.8 mph - N/A   Overcast
4:56 AM 51.1 °F - 48.0 °F 89% 29.45 in 10.0 mi West 5.8 mph - N/A   Overcast
5:19 AM 50.0 °F - 46.9 °F 89% 29.43 in 10.0 mi West 8.1 mph - N/A   Overcast
5:26 AM 50.0 °F - 46.9 °F 89% 29.44 in 10.0 mi West 9.2 mph - N/A   Overcast
5:56 AM 50.0 °F - 46.9 °F 89% 29.44 in 10.0 mi West 5.8 mph - N/A   Overcast
6:56 AM 50.0 °F - 46.0 °F 86% 29.45 in 10.0 mi West 6.9 mph - N/A   Overcast
7:56 AM 48.9 °F - 45.0 °F 86% 29.46 in 10.0 mi WNW 8.1 mph - N/A   Overcast
8:56 AM 48.9 °F - 44.1 °F 83% 29.46 in 10.0 mi WNW 5.8 mph - N/A   Overcast
9:56 AM 50.0 °F - 43.0 °F 77% 29.46 in 10.0 mi WNW 9.2 mph - N/A   Overcast
10:56 AM 48.9 °F - 43.0 °F 80% 29.45 in 10.0 mi WNW 10.4 mph - N/A   Overcast
11:12 AM 48.0 °F - 42.1 °F 80% 29.44 in 10.0 mi NW 10.4 mph 18.4 mph N/A   Overcast
11:56 AM 48.0 °F - 39.0 °F 71% 29.44 in 10.0 mi WNW 13.8 mph - N/A   Overcast
12:03 PM 48.0 °F - 39.0 °F 71% 29.43 in 10.0 mi WNW 12.7 mph 19.6 mph N/A   Overcast
12:56 PM 48.0 °F - 37.9 °F 68% 29.44 in 10.0 mi WNW 11.5 mph 18.4 mph N/A   Overcast
1:39 PM 48.9 °F - 37.9 °F 66% 29.44 in 10.0 mi WNW 5.8 mph 17.3 mph N/A   Mostly Cloudy
1:56 PM 48.9 °F - 37.9 °F 66% 29.45 in 10.0 mi NW 10.4 mph - N/A   Overcast
2:56 PM 50.0 °F - 36.0 °F 59% 29.47 in 10.0 mi WNW 9.2 mph 17.3 mph N/A   Overcast
3:56 PM 48.0 °F - 35.1 °F 61% 29.49 in 10.0 mi West 15.0 mph 23.0 mph N/A   Overcast
4:56 PM 46.9 °F - 33.1 °F 59% 29.53 in 10.0 mi WNW 10.4 mph 20.7 mph N/A   Overcast
5:56 PM 46.0 °F 39.0 °F 32.0 °F 58% 29.57 in 10.0 mi WNW 17.3 mph 26.5 mph N/A   Overcast
6:56 PM 44.1 °F 36.8 °F 33.1 °F 65% 29.60 in 10.0 mi WNW 16.1 mph 28.8 mph 0.00 in Rain Light Rain
7:56 PM 44.1 °F 36.8 °F 30.9 °F 60% 29.64 in 10.0 mi WNW 16.1 mph 27.6 mph 0.00 in   Overcast
8:56 PM 43.0 °F 36.0 °F 30.0 °F 60% 29.68 in 10.0 mi WNW 13.8 mph 23.0 mph N/A   Mostly Cloudy
9:56 PM 37.9 °F 29.2 °F 28.0 °F 68% 29.70 in 10.0 mi NW 15.0 mph 25.3 mph N/A   Clear
10:56 PM 41.0 °F 35.2 °F 28.0 °F 60% 29.74 in 10.0 mi WNW 9.2 mph 18.4 mph N/A   Clear
11:56 PM 39.9 °F 32.5 °F 28.0 °F 63% 29.77 in 10.0 mi WNW 12.7 mph 21.9 mph N/A   Clear